DM1AS-13 Weather Reports


Display with metric or nautical units.
time (UTC)temp
F
wind
direction
speed
MPH
gust
MPH
rain 1hr
in
rain 24hr
in
rain mn
in
humidity
%
barometer
mb
20260507043916 47 225 1.0 2.0 0.00 0.24 0.00 86 1013.0
20260507042916 47 270 2.0 4.0 0.00 0.24 0.00 86 1012.8
20260507041916 47 135 1.0 3.0 0.00 0.25 0.00 86 1012.9
20260507040916 47 270 2.0 6.0 0.00 0.25 0.00 86 1012.8
20260507035916 47 338 1.0 1.0 0.00 0.28 0.00 86 1012.5
20260507034916 47 248 1.0 2.0 0.00 0.32 0.00 86 1012.5
20260507033916 46 248 2.0 4.0 0.00 0.38 0.00 86 1012.4
20260507032936 46 293 1.0 2.0 0.00 0.44 0.00 86 1012.3
20260507031916 46 0 1.0 2.0 0.00 0.47 0.00 86 1012.3
20260507030916 46 270 2.0 5.0 0.00 0.47 0.00 86 1012.4
20260507025916 46 315 1.0 2.0 0.00 0.47 0.00 86 1012.3
20260507024916 46 0.0 1.0 0.00 0.47 0.00 86 1012.1
20260507023916 46 180 1.0 1.0 0.00 0.47 0.00 86 1012.3
20260507022916 46 0.0 1.0 0.00 0.47 0.00 86 1012.3
20260507021916 47 270 1.0 2.0 0.00 0.48 0.00 86 1012.1
20260507020916 47 0.0 0.0 0.00 0.48 0.00 86 1012.0
20260507015956 47 0 1.0 2.0 0.00 0.48 0.00 86 1011.8
20260507014916 47 338 1.0 2.0 0.00 0.48 0.00 86 1011.8
20260507013916 46 0.0 1.0 0.00 0.48 0.00 86 1011.8
20260507012916 46 0.0 1.0 0.00 0.48 0.00 86 1011.8
20260507011916 46 0.0 1.0 0.00 0.49 0.00 86 1011.7
20260507010936 46 68 1.0 2.0 0.00 0.49 0.00 86 1011.7
20260507005916 46 0.0 1.0 0.00 0.50 0.00 86 1011.6
20260507004936 46 270 2.0 2.0 0.00 0.50 0.00 86 1011.5
20260507003916 47 270 2.0 4.0 0.00 0.50 0.00 86 1011.1
20260507002916 47 0.0 0.0 0.00 0.50 0.00 86 1011.0
20260507001916 47 270 1.0 1.0 0.00 0.50 0.00 86 1011.1
20260507000916 47 0.0 1.0 0.00 0.51 0.00 86 1011.1
20260506235916 47 293 1.0 3.0 0.00 0.51 0.00 86 1011.2
20260506234916 47 45 2.0 5.0 0.00 0.51 0.00 86 1011.0
20260506233916 47 0.0 0.0 0.00 0.51 0.00 86 1011.0
20260506232916 48 180 1.0 2.0 0.00 0.51 0.00 86 1011.1
20260506231915 48 338 1.0 2.0 0.00 0.51 0.00 86 1011.1
20260506230915 48 338 2.0 5.0 0.00 0.51 0.00 85 1011.2
20260506225936 49 315 3.0 5.0 0.00 0.52 0.00 85 1011.0
20260506224915 50 338 1.0 2.0 0.00 0.52 0.00 85 1010.8
20260506223916 50 338 2.0 3.0 0.00 0.52 0.00 85 1010.7
20260506222936 51 270 1.0 1.0 0.00 0.52 0.00 85 1010.6
20260506221916 51 338 2.0 3.0 0.00 0.52 0.00 84 1010.5
20260506220915 51 0 1.0 1.0 0.00 0.52 0.00 85 1010.4
20260506215916 52 135 3.0 6.0 0.00 0.52 0.52 85 1010.2
20260506214916 52 293 1.0 2.0 0.00 0.52 0.52 85 1010.3
20260506213916 52 0.0 1.0 0.00 0.52 0.52 85 1010.3
20260506212916 52 270 1.0 2.0 0.00 0.52 0.52 85 1010.4
20260506211916 52 90 1.0 2.0 0.00 0.52 0.52 86 1010.3
20260506210916 52 270 4.0 6.0 0.00 0.52 0.52 86 1010.4
20260506210008 52 0.0 0.0 0.00 0.52 0.52 86 1010.2
20260506205832 52 0.0 0.0 0.00 0.52 0.52 86 1010.2
20260506205716 52 315 1.0 1.0 0.00 0.52 0.52 86 1010.2
20260506204716 52 293 1.0 1.0 0.00 0.52 0.52 86 1010.1
20260506203716 52 293 1.0 2.0 0.00 0.52 0.52 86 1010.1
20260506202812 52 0.0 0.0 0.00 0.52 0.52 86 1010.1
20260506202650 52 0 2.0 2.0 0.00 0.52 0.52 86 1010.1
20260506202509 52 0.0 0.0 0.00 0.52 0.52 86 1010.1
20260506202335 52 0.0 0.0 0.00 0.52 0.52 86 1010.1
20260506202016 52 315 1.0 2.0 0.00 0.52 0.52 87 1010.0
20260506201112 52 270 4.0 6.0 0.00 0.52 0.52 87 1010.1
20260506200909 52 0.0 0.0 0.00 0.52 0.52 87 1010.0
20260506200733 52 0.0 0.0 0.00 0.52 0.52 87 1010.0
20260506200636 52 0.0 0.0 0.00 0.52 0.52 87 1010.0
20260506200433 52 293 3.0 3.0 0.00 0.52 0.52 87 1009.9
20260506195716 53 270 2.0 2.0 0.00 0.52 0.52 87 1009.9
20260506194716 53 270 1.0 1.0 0.00 0.52 0.52 87 1009.9
20260506193716 53 225 1.0 2.0 0.00 0.52 0.52 87 1009.8
20260506192736 53 0.0 1.0 0.00 0.52 0.52 87 1009.6
20260506191716 53 293 1.0 2.0 0.00 0.52 0.52 87 1009.7
20260506190736 53 0.0 0.0 0.00 0.52 0.52 87 1009.7
20260506185822 53 338 3.0 4.0 0.00 0.52 0.52 87 1009.6
20260506184916 53 293 3.0 4.0 0.00 0.52 0.52 87 1009.4
20260506183915 53 0.0 1.0 0.00 0.52 0.52 87 1009.5
20260506182916 53 338 1.0 3.0 0.00 0.52 0.52 87 1009.5
20260506181916 53 0.0 1.0 0.01 0.52 0.52 87 1009.3
20260506180915 53 225 1.0 1.0 0.01 0.52 0.52 87 1009.2
20260506175916 54 0.0 1.0 0.01 0.52 0.52 87 1009.0
20260506174916 54 293 1.0 2.0 0.01 0.52 0.52 87 1009.0
20260506173936 54 0.0 1.0 0.01 0.52 0.52 87 1008.8
20260506172915 54 293 2.0 4.0 0.01 0.52 0.52 87 1008.8
20260506171936 55 338 2.0 3.0 0.00 0.51 0.51 87 1008.8
20260506170916 55 270 2.0 4.0 0.00 0.51 0.51 86 1008.9
20260506165915 56 0.0 1.0 0.00 0.51 0.51 87 1008.8
20260506164915 56 293 1.0 1.0 0.00 0.51 0.51 87 1008.7
20260506163916 56 315 3.0 5.0 0.00 0.51 0.51 86 1008.6
20260506162917 56 248 1.0 3.0 0.00 0.51 0.51 87 1008.5
20260506161917 56 0.0 1.0 0.00 0.51 0.51 87 1008.8
20260506160917 55 0.0 1.0 0.00 0.51 0.51 87 1008.9
20260506155918 55 338 2.0 4.0 0.00 0.51 0.51 87 1009.0
20260506154917 56 315 1.0 1.0 0.00 0.51 0.51 88 1009.0
20260506153917 55 0.0 1.0 0.00 0.51 0.51 88 1009.0
20260506152938 56 315 1.0 1.0 0.00 0.51 0.51 88 1009.1
20260506151916 56 315 2.0 5.0 0.00 0.51 0.51 88 1009.0
20260506150917 56 0.0 1.0 0.00 0.51 0.51 89 1008.8
20260506145917 56 0.0 1.0 0.00 0.51 0.51 90 1008.8
20260506144917 56 248 1.0 2.0 0.00 0.51 0.51 90 1008.6
20260506143917 55 315 1.0 2.0 0.00 0.51 0.51 90 1008.6
20260506142917 55 0.0 2.0 0.00 0.51 0.51 90 1008.8
20260506141917 55 338 1.0 2.0 0.00 0.51 0.51 90 1008.8
20260506140917 55 315 1.0 2.0 0.00 0.51 0.51 90 1008.8
20260506135917 56 270 2.0 4.0 0.00 0.51 0.51 91 1008.7
20260506134917 55 293 1.0 2.0 0.00 0.51 0.51 92 1008.6
20260506133918 56 315 1.0 2.0 0.00 0.51 0.51 92 1008.6
20260506132917 55 0.0 1.0 0.00 0.51 0.51 93 1008.5
20260506131917 55 338 1.0 2.0 0.00 0.51 0.51 92 1008.5
20260506130917 55 0.0 1.0 0.00 0.51 0.51 93 1008.4
20260506125937 55 315 2.0 5.0 0.00 0.51 0.51 93 1008.5
20260506124917 54 293 1.0 2.0 0.00 0.51 0.51 93 1008.5
20260506123937 54 315 1.0 2.0 0.00 0.51 0.51 94 1008.5
20260506122917 54 0.0 1.0 0.00 0.51 0.51 93 1008.6
20260506121917 54 315 1.0 1.0 0.00 0.51 0.51 93 1008.5
20260506120937 54 293 2.0 4.0 0.00 0.51 0.51 94 1008.5
20260506115917 55 0.0 1.0 0.00 0.51 0.51 94 1008.5
20260506114937 55 0.0 1.0 0.00 0.51 0.51 94 1008.4
20260506113917 55 315 1.0 1.0 0.00 0.51 0.51 94 1008.2
20260506112917 54 270 1.0 2.0 0.00 0.51 0.51 94 1008.0
20260506111917 54 315 2.0 5.0 0.00 0.51 0.51 94 1008.0
20260506110917 54 315 1.0 3.0 0.00 0.51 0.51 94 1007.9
20260506105917 54 338 1.0 3.0 0.00 0.51 0.51 94 1007.9
20260506104917 54 315 1.0 1.0 0.00 0.51 0.51 94 1007.8
20260506103917 54 338 1.0 3.0 0.01 0.51 0.51 94 1007.7
20260506102917 54 293 4.0 6.0 0.02 0.51 0.51 94 1007.6
20260506101917 54 0.0 0.0 0.02 0.51 0.51 94 1007.5
20260506100917 54 270 2.0 4.0 0.02 0.51 0.51 94 1007.3
20260506095937 53 338 1.0 2.0 0.03 0.51 0.51 94 1007.3
20260506094917 53 23 1.0 3.0 0.04 0.51 0.51 94 1007.3
20260506093917 53 315 3.0 5.0 0.04 0.50 0.50 94 1007.1
20260506092917 53 338 1.0 2.0 0.03 0.50 0.50 94 1007.1
20260506091917 53 293 2.0 5.0 0.03 0.50 0.50 94 1007.0
20260506090917 53 293 1.0 1.0 0.04 0.49 0.49 94 1007.0
20260506085917 53 270 4.0 7.0 0.05 0.48 0.48 94 1006.9
20260506084916 53 315 3.0 5.0 0.05 0.47 0.47 94 1006.8
20260506083917 53 270 3.0 4.0 0.06 0.46 0.46 94 1006.7
20260506082917 53 315 2.0 4.0 0.07 0.46 0.46 94 1006.7
20260506081916 53 315 1.0 2.0 0.09 0.46 0.46 94 1006.7
20260506080916 53 338 3.0 6.0 0.09 0.45 0.45 94 1006.7
20260506072916 53 293 1.0 2.0 0.08 0.39 0.39 94 1006.3
20260506071917 53 315 1.0 2.0 0.06 0.37 0.37 94 1006.3
20260506070917 53 315 1.0 2.0 0.05 0.35 0.35 94 1006.2
20260506061916 53 0.0 1.0 0.02 0.31 0.31 93 1006.2
20260506060916 53 270 2.0 2.0 0.02 0.31 0.31 93 1006.1
20260506050916 54 315 3.0 5.0 0.02 0.29 0.29 93 1006.4
20260506044916 54 0.0 1.0 0.09 0.28 0.28 93 1006.4